• In Österreich
  • Länderverzeichnis
  • Für 7 Tage
  • Wassertemperatur
  • Satellitenkarten
  • Wetterkarte
  • News
  • Widgets
  • user-avatar
    Anmelden

    Stündliche Wetter Lezhe

    Heute, 22 Mai, Dienstag

    Zeit Temperatur Niederschläge Wind Luftdruck Luftfeuchtigkeit
    00:00 +17°C° 0,1 mm 2 m/S 736 mmHg 81%
    01:00 +18°C° 0 mm 1 m/S 736 mmHg 82%
    02:00 +18°C° 0,1 mm 1 m/S 736 mmHg 82%
    03:00 +17°C° 0,1 mm 2 m/S 736 mmHg 81%
    04:00 +16°C° 0,1 mm 2 m/S 736 mmHg 81%
    05:00 +18°C° 0 mm 2 m/S 737 mmHg 78%
    06:00 +21°C° 0 mm 1 m/S 737 mmHg 74%
    07:00 +23°C° 0 mm 1 m/S 737 mmHg 69%
    08:00 +24°C° 0,2 mm 1 m/S 737 mmHg 66%
    09:00 +25°C° 0,2 mm 1 m/S 737 mmHg 62%
    10:00 +26°C° 0,2 mm 1 m/S 737 mmHg 58%
    11:00 +26°C° 0,7 mm 2 m/S 737 mmHg 58%
    12:00 +27°C° 0,7 mm 2 m/S 737 mmHg 58%
    13:00 +27°C° 0 mm 2 m/S 738 mmHg 58%
    14:00 +27°C° 0,7 mm 1 m/S 738 mmHg 58%
    15:00 +27°C° 0,7 mm 1 m/S 738 mmHg 58%
    16:00 +27°C° 0,7 mm 1 m/S 738 mmHg 59%
    17:00 +25°C° 0,3 mm 1 m/S 738 mmHg 64%
    18:00 +23°C° 0,3 mm 1 m/S 738 mmHg 70%
    19:00 +19°C° 0,3 mm 0 m/S 738 mmHg 76%
    20:00 +21°C° 0,2 mm 1 m/S 738 mmHg 76%
    21:00 +20°C° 0,2 mm 1 m/S 738 mmHg 76%
    22:00 +20°C° 0,2 mm 1 m/S 738 mmHg 75%
    23:00 +19°C° 0,1 mm 2 m/S 738 mmHg 75%

    Morgen, 23 Mai, Mittwoch

    Zeit Temperatur Niederschläge Wind Luftdruck Luftfeuchtigkeit
    00:00 +18°C° 0,1 mm 2 m/S 738 mmHg 74%
    01:00 +18°C° 0,1 mm 2 m/S 738 mmHg 73%
    02:00 +18°C° 0,1 mm 2 m/S 738 mmHg 72%
    03:00 +18°C° 0,1 mm 2 m/S 738 mmHg 71%
    04:00 +18°C° 0,1 mm 2 m/S 738 mmHg 70%
    05:00 +19°C° 0,1 mm 2 m/S 738 mmHg 70%
    06:00 +21°C° 0,1 mm 1 m/S 738 mmHg 69%
    07:00 +23°C° 0,1 mm 1 m/S 738 mmHg 69%
    08:00 +23°C° 0,2 mm 1 m/S 738 mmHg 66%
    09:00 +24°C° 0,2 mm 2 m/S 738 mmHg 64%
    10:00 +25°C° 0,2 mm 2 m/S 738 mmHg 62%
    11:00 +25°C° 0,5 mm 2 m/S 738 mmHg 61%
    12:00 +26°C° 0,5 mm 2 m/S 738 mmHg 60%
    13:00 +26°C° 0,5 mm 2 m/S 738 mmHg 58%
    14:00 +25°C° 1 mm 2 m/S 738 mmHg 65%
    15:00 +24°C° 1 mm 2 m/S 737 mmHg 72%
    16:00 +23°C° 1 mm 2 m/S 737 mmHg 79%
    17:00 +21°C° 0,5 mm 2 m/S 737 mmHg 80%
    18:00 +21°C° 0,5 mm 2 m/S 737 mmHg 81%
    19:00 +21°C° 0,5 mm 1 m/S 737 mmHg 82%
    20:00 +20°C° 0,4 mm 1 m/S 737 mmHg 83%
    21:00 +19°C° 0,4 mm 2 m/S 737 mmHg 83%
    22:00 +18°C° 0,4 mm 2 m/S 737 mmHg 84%
    23:00 +18°C° 0,3 mm 2 m/S 737 mmHg 84%

    übermorgen, 24 Mai, Donnerstag

    Zeit Temperatur Niederschläge Wind Luftdruck Luftfeuchtigkeit
    00:00 +19°C° 0,3 mm 1 m/S 737 mmHg 85%
    01:00 +18°C° 0,3 mm 1 m/S 737 mmHg 85%
    02:00 +18°C° 0,1 mm 1 m/S 737 mmHg 85%
    03:00 +17°C° 0,1 mm 2 m/S 737 mmHg 84%
    04:00 +17°C° 0,1 mm 2 m/S 737 mmHg 84%
    05:00 +19°C° 0 mm 1 m/S 737 mmHg 80%
    06:00 +20°C° 0 mm 1 m/S 737 mmHg 76%
    07:00 +22°C° 0 mm 1 m/S 737 mmHg 72%
    08:00 +23°C° 0,1 mm 2 m/S 737 mmHg 68%
    09:00 +24°C° 0,1 mm 2 m/S 737 mmHg 64%
    10:00 +25°C° 0,1 mm 2 m/S 737 mmHg 60%
    11:00 +26°C° 0,4 mm 3 m/S 737 mmHg 60%
    12:00 +26°C° 0,4 mm 3 m/S 736 mmHg 60%
    13:00 +26°C° 0,4 mm 4 m/S 736 mmHg 61%
    14:00 +26°C° 0,6 mm 3 m/S 736 mmHg 63%
    15:00 +26°C° 0,6 mm 3 m/S 736 mmHg 66%
    16:00 +25°C° 0,6 mm 3 m/S 735 mmHg 68%
    17:00 +24°C° 0,3 mm 3 m/S 736 mmHg 73%
    18:00 +23°C° 0,3 mm 2 m/S 736 mmHg 79%
    19:00 +20°C° 0,3 mm 2 m/S 736 mmHg 85%
    20:00 +20°C° 0,1 mm 2 m/S 736 mmHg 84%
    21:00 +19°C° 0,1 mm 2 m/S 736 mmHg 84%
    22:00 +20°C° 0,1 mm 1 m/S 736 mmHg 84%
    23:00 +19°C° 0 mm 2 m/S 736 mmHg 84%

    25 Mai, Freitag

    Zeit Temperatur Niederschläge Wind Luftdruck Luftfeuchtigkeit
    00:00 +18°C° 0 mm 2 m/S 736 mmHg 84%
    01:00 +18°C° 0 mm 2 m/S 736 mmHg 85%
    02:00 +17°C° 0 mm 2 m/S 736 mmHg 85%
    03:00 +17°C° 0 mm 2 m/S 736 mmHg 86%
    04:00 +17°C° 0 mm 2 m/S 736 mmHg 86%
    05:00 +18°C° 0 mm 2 m/S 736 mmHg 82%
    06:00 +20°C° 0 mm 2 m/S 736 mmHg 78%
    07:00 +21°C° 0 mm 2 m/S 736 mmHg 74%
    08:00 +24°C° 0 mm 2 m/S 736 mmHg 68%
    09:00 +25°C° 0 mm 2 m/S 736 mmHg 61%
    10:00 +26°C° 0 mm 2 m/S 736 mmHg 55%
    11:00 +27°C° 0,1 mm 3 m/S 736 mmHg 54%
    12:00 +28°C° 0,1 mm 3 m/S 736 mmHg 52%
    13:00 +28°C° 0,1 mm 3 m/S 736 mmHg 50%
    14:00 +28°C° 0,1 mm 3 m/S 736 mmHg 52%
    15:00 +28°C° 0,1 mm 4 m/S 736 mmHg 54%
    16:00 +27°C° 0,1 mm 4 m/S 736 mmHg 55%
    17:00 +26°C° 0,1 mm 3 m/S 736 mmHg 62%
    18:00 +24°C° 0,1 mm 3 m/S 736 mmHg 69%
    19:00 +21°C° 0,1 mm 3 m/S 737 mmHg 75%
    20:00 +20°C° 0 mm 3 m/S 737 mmHg 76%
    21:00 +20°C° 0 mm 3 m/S 737 mmHg 77%
    22:00 +19°C° 0 mm 3 m/S 738 mmHg 78%
    23:00 +19°C° 0 mm 3 m/S 738 mmHg 79%

    26 Mai, Samstag

    Zeit Temperatur Niederschläge Wind Luftdruck Luftfeuchtigkeit
    00:00 +18°C° 0 mm 3 m/S 738 mmHg 81%
    01:00 +18°C° 0 mm 3 m/S 738 mmHg 82%
    02:00 +18°C° 0 mm 3 m/S 738 mmHg 83%
    03:00 +17°C° 0 mm 3 m/S 738 mmHg 83%
    04:00 +17°C° 0 mm 3 m/S 738 mmHg 84%
    05:00 +19°C° 0 mm 3 m/S 738 mmHg 80%
    06:00 +20°C° 0 mm 3 m/S 738 mmHg 76%
    07:00 +22°C° 0 mm 3 m/S 739 mmHg 72%
    08:00 +24°C° 0 mm 3 m/S 739 mmHg 66%
    09:00 +25°C° 0 mm 3 m/S 739 mmHg 61%
    10:00 +27°C° 0 mm 3 m/S 739 mmHg 55%
    11:00 +28°C° 0 mm 3 m/S 739 mmHg 54%
    12:00 +28°C° 0 mm 3 m/S 739 mmHg 52%
    13:00 +29°C° 0 mm 3 m/S 738 mmHg 50%
    14:00 +29°C° 0 mm 4 m/S 738 mmHg 52%
    15:00 +29°C° 0 mm 4 m/S 738 mmHg 53%
    16:00 +28°C° 0 mm 4 m/S 738 mmHg 54%
    17:00 +27°C° 0,1 mm 4 m/S 738 mmHg 62%
    18:00 +25°C° 0,1 mm 3 m/S 738 mmHg 69%
    19:00 +22°C° 0,1 mm 3 m/S 738 mmHg 76%
    20:00 +21°C° 0 mm 3 m/S 739 mmHg 78%
    21:00 +20°C° 0 mm 3 m/S 739 mmHg 79%
    22:00 +20°C° 0 mm 3 m/S 739 mmHg 81%
    23:00 +19°C° 0 mm 3 m/S 739 mmHg 82%

    27 Mai, Sonntag

    Zeit Temperatur Niederschläge Wind Luftdruck Luftfeuchtigkeit
    00:00 +19°C° 0 mm 3 m/S 739 mmHg 83%
    01:00 +19°C° 0 mm 3 m/S 739 mmHg 84%
    02:00 +19°C° 0 mm 3 m/S 739 mmHg 84%
    03:00 +18°C° 0 mm 3 m/S 739 mmHg 85%
    04:00 +18°C° 0 mm 3 m/S 739 mmHg 85%
    05:00 +20°C° 0 mm 3 m/S 739 mmHg 82%
    06:00 +21°C° 0 mm 3 m/S 739 mmHg 78%
    07:00 +22°C° 0 mm 4 m/S 739 mmHg 74%
    08:00 +25°C° 0 mm 3 m/S 739 mmHg 68%
    09:00 +26°C° 0 mm 3 m/S 739 mmHg 62%
    10:00 +27°C° 0 mm 3 m/S 739 mmHg 56%
    11:00 +28°C° 0,1 mm 3 m/S 739 mmHg 54%
    12:00 +29°C° 0,1 mm 3 m/S 739 mmHg 51%
    13:00 +29°C° 0,1 mm 3 m/S 739 mmHg 49%
    14:00 +29°C° 0,1 mm 3 m/S 739 mmHg 50%
    15:00 +29°C° 0,1 mm 3 m/S 738 mmHg 52%
    16:00 +29°C° 0,1 mm 3 m/S 738 mmHg 54%
    17:00 +27°C° 0 mm 3 m/S 738 mmHg 60%
    18:00 +25°C° 0 mm 3 m/S 738 mmHg 66%
    19:00 +22°C° 0 mm 3 m/S 738 mmHg 72%
    20:00 +21°C° 0 mm 3 m/S 739 mmHg 73%
    21:00 +20°C° 0 mm 3 m/S 739 mmHg 74%
    22:00 +19°C° 0 mm 3 m/S 739 mmHg 75%
    23:00 +19°C° 0 mm 3 m/S 739 mmHg 76%
    Mehr zeigen